• In Uzbekistan
  • List of Countries
  • For 7 days
  • Water Temperature
  • Satellite Maps
  • Weather Map
  • Weather Widgets
  • user-avatar
    Login

    Hourly Weather Lankaran

    Today, 22 January, Sunday

    Time Temperature Precipitation Wind Pressure Humidity
    00:00 -4°C° 0 mm 1 mps 632 mmHg 83%
    01:00 -4°C° 0 mm 1 mps 632 mmHg 82%
    02:00 -4°C° 0 mm 1 mps 632 mmHg 80%
    03:00 -3°C° 0 mm 1 mps 632 mmHg 79%
    04:00 -3°C° 0.1 mm 1 mps 632 mmHg 78%
    05:00 -3°C° 0.1 mm 1 mps 632 mmHg 77%
    06:00 -3°C° 0.1 mm 1 mps 632 mmHg 76%
    07:00 -3°C° 0.1 mm 1 mps 632 mmHg 75%
    08:00 -4°C° 0.1 mm 2 mps 632 mmHg 73%
    09:00 -4°C° 0.1 mm 2 mps 633 mmHg 72%
    10:00 -3°C° 0.1 mm 2 mps 633 mmHg 68%
    11:00 -2°C° 0.1 mm 3 mps 633 mmHg 64%
    12:00 -1°C° 0.1 mm 3 mps 633 mmHg 60%
    13:00 -2°C° 0.1 mm 3 mps 633 mmHg 60%
    14:00 -2°C° 0.1 mm 2 mps 633 mmHg 60%
    15:00 -2°C° 0.1 mm 2 mps 633 mmHg 60%
    16:00 -3°C° 0.1 mm 2 mps 634 mmHg 65%
    17:00 -4°C° 0.1 mm 2 mps 634 mmHg 69%
    18:00 -3°C° 0.1 mm 1 mps 634 mmHg 74%
    19:00 -5°C° 0.1 mm 2 mps 635 mmHg 74%
    20:00 -5°C° 0.1 mm 2 mps 636 mmHg 74%
    21:00 -5°C° 0.1 mm 2 mps 636 mmHg 73%
    22:00 -5°C° 0.1 mm 2 mps 637 mmHg 77%
    23:00 -6°C° 0.1 mm 2 mps 637 mmHg 81%

    Tomorrow, 23 January, Monday

    Time Temperature Precipitation Wind Pressure Humidity
    00:00 -6°C° 0.1 mm 2 mps 637 mmHg 84%
    01:00 -6°C° 0.2 mm 2 mps 637 mmHg 84%
    02:00 -6°C° 0.2 mm 2 mps 637 mmHg 84%
    03:00 -6°C° 0.2 mm 2 mps 637 mmHg 83%
    04:00 -4°C° 0.1 mm 1 mps 637 mmHg 82%
    05:00 -4°C° 0.1 mm 1 mps 637 mmHg 81%
    06:00 -4°C° 0.1 mm 1 mps 637 mmHg 80%
    07:00 -4°C° 0 mm 1 mps 638 mmHg 76%
    08:00 -3°C° 0 mm 1 mps 638 mmHg 71%
    09:00 -2°C° 0 mm 1 mps 638 mmHg 67%
    10:00 -2°C° 0 mm 1 mps 638 mmHg 63%
    11:00 -1°C° 0 mm 1 mps 638 mmHg 59%
    12:00 0°C° 0 mm 1 mps 638 mmHg 54%
    13:00 0°C° 0 mm 1 mps 638 mmHg 56%
    14:00 0°C° 0 mm 1 mps 638 mmHg 58%
    15:00 0°C° 0 mm 1 mps 638 mmHg 59%
    16:00 -1°C° 0 mm 1 mps 638 mmHg 65%
    17:00 -2°C° 0 mm 1 mps 638 mmHg 70%
    18:00 -3°C° 0 mm 1 mps 638 mmHg 76%
    19:00 -3°C° 0 mm 1 mps 638 mmHg 77%
    20:00 -3°C° 0 mm 1 mps 638 mmHg 79%
    21:00 -3°C° 0 mm 1 mps 638 mmHg 80%
    22:00 -3°C° 0 mm 1 mps 638 mmHg 81%
    23:00 -3°C° 0 mm 1 mps 638 mmHg 81%

    Day after tomorrow, 24 January, Tuesday

    Time Temperature Precipitation Wind Pressure Humidity
    00:00 -3°C° 0 mm 1 mps 638 mmHg 82%
    01:00 -4°C° 0 mm 1 mps 638 mmHg 82%
    02:00 -4°C° 0 mm 1 mps 638 mmHg 82%
    03:00 -4°C° 0 mm 1 mps 638 mmHg 82%
    04:00 -4°C° 0 mm 1 mps 638 mmHg 81%
    05:00 -6°C° 0 mm 1 mps 638 mmHg 80%
    06:00 -7°C° 0 mm 1 mps 638 mmHg 79%
    07:00 -4°C° 0 mm 1 mps 638 mmHg 73%
    08:00 -3°C° 0 mm 1 mps 639 mmHg 67%
    09:00 -4°C° 0 mm 2 mps 639 mmHg 61%
    10:00 -3°C° 0 mm 2 mps 639 mmHg 56%
    11:00 -2°C° 0 mm 2 mps 639 mmHg 51%
    12:00 -1°C° 0 mm 2 mps 639 mmHg 46%
    13:00 -1°C° 0 mm 2 mps 638 mmHg 46%
    14:00 -1°C° 0 mm 2 mps 638 mmHg 47%
    15:00 0°C° 0 mm 3 mps 637 mmHg 47%
    16:00 -2°C° 0 mm 3 mps 637 mmHg 51%
    17:00 -4°C° 0 mm 3 mps 637 mmHg 55%
    18:00 -5°C° 0 mm 3 mps 636 mmHg 59%
    19:00 -5°C° 0 mm 3 mps 636 mmHg 57%
    20:00 -5°C° 0 mm 3 mps 636 mmHg 55%
    21:00 -5°C° 0 mm 3 mps 636 mmHg 53%
    22:00 -5°C° 0 mm 3 mps 635 mmHg 51%
    23:00 -5°C° 0 mm 3 mps 635 mmHg 50%

    25 January, Wednesday

    Time Temperature Precipitation Wind Pressure Humidity
    00:00 -5°C° 0 mm 3 mps 635 mmHg 49%
    01:00 -5°C° 0 mm 3 mps 634 mmHg 49%
    02:00 -5°C° 0 mm 3 mps 634 mmHg 49%
    03:00 -5°C° 0 mm 3 mps 634 mmHg 49%
    04:00 -5°C° 0 mm 3 mps 633 mmHg 50%
    05:00 -5°C° 0 mm 3 mps 633 mmHg 50%
    06:00 -5°C° 0 mm 3 mps 632 mmHg 50%
    07:00 -4°C° 0 mm 3 mps 632 mmHg 49%
    08:00 -2°C° 0 mm 3 mps 632 mmHg 47%
    09:00 -2°C° 0 mm 4 mps 632 mmHg 45%
    10:00 -1°C° 0 mm 4 mps 632 mmHg 42%
    11:00 0°C° 0 mm 4 mps 632 mmHg 40%
    12:00 +2°C° 0 mm 5 mps 632 mmHg 37%
    13:00 +2°C° 0 mm 5 mps 631 mmHg 39%
    14:00 +3°C° 0 mm 4 mps 630 mmHg 41%
    15:00 +3°C° 0 mm 4 mps 630 mmHg 42%
    16:00 +1°C° 0 mm 4 mps 630 mmHg 45%
    17:00 0°C° 0 mm 4 mps 629 mmHg 47%
    18:00 -2°C° 0 mm 4 mps 629 mmHg 50%
    19:00 -2°C° 0 mm 4 mps 629 mmHg 51%
    20:00 -2°C° 0 mm 4 mps 629 mmHg 52%
    21:00 -2°C° 0 mm 4 mps 629 mmHg 53%
    22:00 -2°C° 0 mm 4 mps 629 mmHg 54%
    23:00 -2°C° 0 mm 4 mps 628 mmHg 55%

    26 January, Thursday

    Time Temperature Precipitation Wind Pressure Humidity
    00:00 -2°C° 0 mm 4 mps 628 mmHg 56%
    01:00 -2°C° 0 mm 4 mps 628 mmHg 56%
    02:00 -2°C° 0 mm 4 mps 628 mmHg 56%
    03:00 -2°C° 0 mm 5 mps 627 mmHg 57%
    04:00 -2°C° 0 mm 5 mps 627 mmHg 58%
    05:00 -2°C° 0 mm 5 mps 627 mmHg 60%
    06:00 -2°C° 0 mm 5 mps 628 mmHg 62%
    07:00 -2°C° 0 mm 5 mps 628 mmHg 61%
    08:00 -1°C° 0 mm 5 mps 628 mmHg 60%
    09:00 0°C° 0 mm 5 mps 628 mmHg 59%
    10:00 +1°C° 0 mm 5 mps 628 mmHg 56%
    11:00 +2°C° 0 mm 6 mps 628 mmHg 53%
    12:00 +3°C° 0 mm 6 mps 628 mmHg 50%
    13:00 +2°C° 0 mm 6 mps 628 mmHg 52%
    14:00 +2°C° 0 mm 6 mps 628 mmHg 53%
    15:00 +2°C° 0 mm 6 mps 628 mmHg 54%
    16:00 +1°C° 0 mm 5 mps 628 mmHg 61%
    17:00 -1°C° 0 mm 5 mps 628 mmHg 68%
    18:00 -2°C° 0 mm 4 mps 628 mmHg 75%
    19:00 -2°C° 0 mm 4 mps 628 mmHg 78%
    20:00 -3°C° 0 mm 4 mps 629 mmHg 81%
    21:00 -3°C° 0 mm 4 mps 629 mmHg 83%
    22:00 -3°C° 0 mm 4 mps 629 mmHg 84%
    23:00 -4°C° 0 mm 4 mps 629 mmHg 84%

    27 January, Friday

    Time Temperature Precipitation Wind Pressure Humidity
    00:00 -4°C° 0 mm 4 mps 629 mmHg 84%
    01:00 -4°C° 0.1 mm 4 mps 629 mmHg 85%
    02:00 -4°C° 0.1 mm 4 mps 629 mmHg 85%
    03:00 -4°C° 0.1 mm 4 mps 629 mmHg 85%
    04:00 -5°C° 0.2 mm 4 mps 629 mmHg 85%
    05:00 -5°C° 0.2 mm 4 mps 630 mmHg 86%
    06:00 -5°C° 0.2 mm 4 mps 630 mmHg 86%
    07:00 -6°C° 0.7 mm 5 mps 630 mmHg 86%
    08:00 -6°C° 0.7 mm 5 mps 630 mmHg 86%
    09:00 -6°C° 0.7 mm 5 mps 630 mmHg 86%
    10:00 -6°C° 0.9 mm 5 mps 630 mmHg 86%
    11:00 -6°C° 0.9 mm 5 mps 629 mmHg 86%
    12:00 -6°C° 0.9 mm 5 mps 629 mmHg 86%
    13:00 -6°C° 1.2 mm 5 mps 629 mmHg 87%
    14:00 -6°C° 1.2 mm 5 mps 629 mmHg 89%
    15:00 -7°C° 1.2 mm 5 mps 628 mmHg 90%
    16:00 -7°C° 1.5 mm 5 mps 629 mmHg 90%
    17:00 -7°C° 1.5 mm 5 mps 629 mmHg 91%
    18:00 -8°C° 1.5 mm 5 mps 629 mmHg 92%
    19:00 -8°C° 1.1 mm 5 mps 629 mmHg 92%
    20:00 -8°C° 1.1 mm 5 mps 629 mmHg 92%
    21:00 -8°C° 1.1 mm 5 mps 630 mmHg 92%
    22:00 -8°C° 1 mm 5 mps 630 mmHg 93%
    23:00 -8°C° 1 mm 5 mps 630 mmHg 93%
    Show more